Regional Weather Roundup
Issued by NWS Sioux Falls, SD

Home | Current Version | Previous Version | Text Only | Print | Product List | Glossary On
Versions: 1 2 3 4 5 6 7 8 9 10 11 12 13 14 15 16 17 18 19 20 21 22 23 24 25 26 27 28 29 30 31 32 33 34 35 36 37 38 39 40 41 42 43 44 45 46 47 48 49 50
000
ASUS43 KFSD 250102
RWRFSD

WEATHER ROUNDUP FOR SE SOUTH DAKOTA/SW MINNESOTA/NW IOWA
NATIONAL WEATHER SERVICE SIOUX FALLS SD
700 PM CST FRI NOV 24 2017

NOTE: "FAIR" INDICATES FEW OR NO CLOUDS BELOW 12,000 FEET WITH NO
SIGNIFICANT WEATHER AND OR OBSTRUCTIONS TO VISIBILITY.


SDZ038>040-050-052>070-250200-
SOUTHEAST SOUTH DAKOTA

CITY           SKY/WX    TMP DP  RH WIND       PRES   REMARKS
BROOKINGS      CLEAR     38  31  76 NW9       29.77R
CHAMBERLAIN    CLEAR     47  36  65 W8        29.86R
HURON          CLEAR     37  31  78 W13       29.81R
MADISON        FAIR      39  34  81 NW10      29.79R
MITCHELL       CLEAR     45  32  60 W8        29.83R
SIOUX FALLS    CLEAR     45  34  65 W10       29.80R
WINNER         FAIR      45  31  58 W13       29.88R
YANKTON        CLEAR     45  33  63 W9        29.84R
$$

MNZ071-072-080-081-089-090-097-098-250200-
SOUTHWEST MINNESOTA

CITY           SKY/WX    TMP DP  RH WIND       PRES   REMARKS
FAIRMONT       CLEAR     46  37  71 NW17      29.70R
JACKSON        CLEAR     45  34  65 NW15      29.72R
MARSHALL       CLEAR     44  34  67 NW16      29.74R
MONTEVIDEO     CLEAR     43  34  70 N10G16    29.72R
PIPESTONE      CLEAR     43  32  65 NW10      29.76R
REDWOOD FALLS  CLEAR     45  33  63 NW13      29.70R
WINDOM         CLEAR     43  28  56 W13       29.72R
WORTHINGTON    CLEAR     44  34  67 NW14      29.75R
$$

IAZ001>003-012>014-020>022-031-032-NEZ013-014-SDZ071-250200-
NORTHWEST IOWA

CITY           SKY/WX    TMP DP  RH WIND       PRES   REMARKS
CHEROKEE       CLEAR     46  35  65 NW5       29.79R
DENISON        CLEAR     50  37  62 NW15      29.79R
ESTHERVILLE    CLEAR     43  36  76 NW13      29.71R
LE MARS        CLEAR     46  36  66 NW10      29.80R
ORANGE CITY    CLEAR     43  37  81 NW6       29.79R
SHELDON        CLEAR     43  36  75 W12       29.77R
SIOUX CITY     CLEAR     48  36  63 NW8       29.81R
SPENCER        CLEAR     43  35  73 NW12      29.75R
STORM LAKE     CLEAR     48  36  61 NW14      29.77R
$$

ABBREVIATIONS USED IN REMARKS
   TC - TEMPERATURE IN CELSIUS
  WCI - WIND CHILL INDEX
   HX - HEAT INDEX
  VSB - VISIBILITY





USA.gov is the U.S. government's official web portal to all federal, state and local government web resources and services.